Location: Camaret
(48.2753°N, 4.5961°W)
Time: 04:36:29
(UTC+00:00)

Cosmos 1892 - Pass Details

Date: 29 October 2020
Orbit: 504 x 524 km, 82.5° (Epoch: 01 December)

Event Time Altitude Azimuth Distance (km) Brightness Sun altitude
Rises 18:28:20 0° 350° (N) 2,669 6.4 -14.6°
Reaches altitude 10° 18:30:29 10° 350° (N) 1,776 5.5 -14.9°
Maximum altitude 18:34:23 87° 265° (W) 533 2.7 -15.6°
Drops below altitude 10° 18:38:15 10° 173° (S) 1,761 5.4 -16.2°
Sets 18:40:23 0° 173° (S) 2,643 6.3 -16.6°
